{"data":{"norad_id":56047,"epoch":"2026-09-20T04:25:37.744032Z","epoch_age_seconds":45455,"freshness":"FRESH","line1":"1 56047U 23043B   26263.18446463 -.00000055  00000+0 -17718-3 0  9997","line2":"2 56047  87.9151 209.9144 0001732  73.2979 286.8342 13.16594253171476","mean_motion":13.16594253,"eccentricity":0.0001732,"inclination_deg":87.9151,"raan_deg":209.9144,"arg_perigee_deg":73.2979,"mean_anomaly_deg":286.8342,"bstar":-0.00017718,"rev_number":17147,"period_min":109.3731038791,"perigee_km":1196.4445376525,"apogee_km":1199.0688272241,"semimajor_km":7575.8936824383,"source":"CELESTRAK","updated_at":"2026-09-20T09:00:44.786385Z"}}